Location: Faicchio
(41.2833°N, 14.4833°E)
Time: 00:03:27
(UTC+00:00)

Daily predictions for brighter satellites

Satellite Brightness Start Highest point End
(mag) Time Altitude Azimuth Time Altitude Azimuth Time Altitude Azimuth
Cosmos 1634 Rocket 4.5 00:03:09 10° NNW 00:09:02 44° W 00:10:17 39° WSW
Timation 2 Rocket 3.8 00:08:50 53° S 00:10:17 78° ESE 00:16:16 10° NNE
Resurs 1-4 Rocket 4.2 00:07:34 10° NE 00:10:53 17° E 00:13:29 12° SE
Cosmos 2278 Rocket 2.8 00:11:06 38° SE 00:12:24 44° ESE 00:17:45 10° NE
CZ-2C R/B 2.5 00:14:32 58° S 00:15:35 81° WSW 00:20:54 10° NNW
SJ 16-02 3.1 00:15:31 20° WNW 00:16:15 21° WNW 00:19:35 10° NNW
Cosmos 1943 Rocket 2.8 00:17:38 37° SE 00:18:57 44° ESE 00:24:10 10° NE
Cosmos 371 Rocket 3.9 00:19:30 41° W 00:20:19 45° WNW 00:24:58 10° N
Meteor 1-21 Rocket 4.2 00:19:49 50° S 00:21:31 89° E 00:27:25 10° N
Cosmos 2151 Rocket 3.5 00:19:40 10° N 00:24:07 86° E 00:24:38 69° SSE
CZ-2D R/B 4.0 00:21:03 10° NE 00:25:04 21° E 00:27:58 14° SE
Okean 2 Rocket 3.1 00:22:35 10° N 00:27:04 75° E 00:27:51 58° SE
Okean 1 Rocket 3.2 00:32:45 10° N 00:37:13 73° E 00:38:19 49° SSE
Cosmos 1025 Rocket 2.8 00:37:03 67° S 00:37:35 83° E 00:41:51 10° N
Nadezhda 4 Rocket 4.0 00:38:07 42° SSW 00:40:16 69° W 00:46:31 10° N
Cosmos 1378 Rocket 4.2 00:40:25 38° W 00:40:48 39° WNW 00:44:57 10° N
USA 81 4.0 00:40:40 43° S 00:42:26 80° E 00:47:42 10° N
Cosmos 1092 Rocket 4.2 00:41:31 31° SSE 00:44:36 65° E 00:50:51 10° NNE
SL-19 R/B 4.3 00:39:46 10° NNE 00:45:19 71° WNW 00:47:17 41° SW
USA 234 4.2 00:39:17 10° NE 00:45:23 43° NNW 00:51:09 11° W
In-Cosmos 22 Rocket 4.5 00:44:33 41° SW 00:46:14 56° WNW 00:51:53 10° N
Cosmos 2195 Rocket 4.4 00:47:11 38° S 00:49:45 89° W 00:55:53 10° N
Cosmos 1340 Rocket 3.1 00:48:31 10° NNW 00:52:07 48° W 00:52:07 48° W
Cosmos 292 Rocket 4.4 00:51:55 33° SSE 00:53:35 48° ESE 00:58:13 10° NNE
Cosmos 1975 Rocket 4.2 00:52:16 25° SE 00:54:14 38° E 00:58:22 10° NNE
ADEOS II 3.6 00:51:48 10° NE 00:56:16 28° E 00:59:49 14° SSE
USA 59 Rocket 2.3 00:53:42 10° WNW 00:54:17 13° W 00:54:17 13° W
Cosmos 158 Rocket 3.8 00:52:11 10° NNW 00:57:16 83° ENE 00:59:59 27° SSE
MOZ.5/SAFIR/RUBIN 5/SL-8 3.6 01:03:04 34° SSE 01:05:03 89° WSW 01:09:40 10° NNW
H-2A R/B 4.3 01:06:39 14° WNW 01:06:39 14° WNW 01:07:54 10° NW
ATLAS 3B R/B 2.9 00:57:56 10° NW 01:05:44 69° WSW 01:13:06 10° SSE
Cosmos 2026 Rocket 4.0 01:06:31 32° SSW 01:09:37 75° W 01:15:54 10° N
FENGYUN 3A 3.6 01:08:06 10° NNE 01:13:29 85° ESE 01:16:13 30° S
H-2A R/B 1.8 01:11:59 10° N 01:15:58 75° WNW 01:17:10 43° SSW
Cosmos 1515 4.3 01:13:58 10° NNE 01:16:28 33° E 01:17:20 26° ESE
IDEFIX/ARIANE 42P 3.0 01:14:51 10° N 01:19:53 50° WNW 01:22:10 30° SW
SL-24 R/B - RUBIN 2 4.0 01:17:19 10° NW 01:21:43 39° WSW 01:22:27 36° SW
Cosmos 1455 Rocket 2.9 01:19:02 10° N 01:23:23 77° W 01:25:24 31° S
Cosmos 1833 Rocket 3.7 01:20:23 10° NW 01:24:55 26° WSW 01:25:46 25° WSW
Atlas Centaur 2 4.1 01:22:32 21° S 01:25:10 24° SSE 01:31:23 10° ESE
Envisat 4.1 01:20:49 10° NNE 01:25:33 39° E 01:29:39 13° SSE
Cosmos 1812 2.3 01:27:16 10° NNW 01:30:23 51° W 01:30:43 48° WSW
MSX 4.3 01:25:56 10° N 01:31:22 46° WNW 01:34:25 25° SW
H-2A R/B 4.3 01:29:46 10° NE 01:33:29 19° E 01:37:07 10° SE
NPP 4.2 01:30:10 10° N 01:35:16 44° WNW 01:38:05 24° SW
ATLAS 5 CENTAUR R/B 0.9 01:34:29 40° S 01:35:16 56° ESE 01:38:24 10° NE
SL-4 R/B 4.4 01:40:30 10° NW 01:43:39 23° NNE 01:46:40 10° ENE
Cosmos 2228 3.1 01:40:27 10° N 01:44:34 69° E 01:48:33 11° SSE
COSMOS 2406 3.6 01:40:22 10° NNW 01:46:06 66° ENE 01:51:48 10° SSE
Cosmos 1486 Rocket 4.0 01:45:05 23° SSW 01:48:22 80° WNW 01:53:37 10° NNE
Cosmos 1666 2.4 01:49:38 27° N 01:49:38 27° N 01:50:36 10° N
Resurs 1-4 Rocket 2.3 01:45:50 10° N 01:51:01 60° WNW 01:54:31 21° SW
Cosmos 2082 Rocket 2.2 01:49:55 10° NNW 01:55:34 65° WSW 02:01:12 10° S
Cosmos 2278 Rocket 3.5 01:52:55 15° WSW 01:56:38 28° NW 02:01:28 10° N
Meteor 1-27 4.3 01:53:03 10° NNW 01:58:53 75° W 02:04:42 10° S
Cosmos 1777 Rocket 4.0 01:57:19 18° SSW 02:01:20 90° ESE 02:06:37 10° NNE
Cosmos 2098 Rocket 2.8 01:58:54 10° NNW 02:02:23 43° W 02:04:01 23° SSW
Cosmos 1943 Rocket 3.5 01:59:08 14° WSW 02:02:50 27° NW 02:07:29 10° N
SL-16 R/B 3.1 01:56:51 10° SSE 02:02:56 62° ENE 02:09:04 10° N
Cosmos 1656 Rocket 3.7 01:59:27 16° SSW 02:04:00 82° ESE 02:09:38 10° NNE
CZ-2D R/B 2.5 02:00:07 10° N 02:05:18 49° WNW 02:09:13 17° SW
Cosmos 1544 Rocket 3.4 02:03:02 10° N 02:07:21 85° W 02:11:38 10° S
ALOS 2.3 02:03:15 10° N 02:07:46 63° WNW 02:11:19 16° SSW
NOSS 3-3 (C) 3.9 02:05:59 15° SSW 02:10:10 66° ESE 02:16:05 10° NE
Cosmos 1354 Rocket 4.2 02:07:07 13° S 02:11:55 76° ESE 02:17:11 10° NNE
CZ-2C R/B 4.0 02:16:25 10° NE 02:20:31 31° E 02:24:41 10° SSE
AQUA 3.8 02:18:03 10° N 02:22:45 75° WNW 02:27:25 10° SSW
Cosmos 1553 Rocket 4.4 02:19:32 10° NNW 02:25:09 41° W 02:30:47 10° SSW
Cosmos 1503 Rocket 4.2 02:20:42 14° SW 02:25:13 59° WNW 02:30:24 10° NNE
S3M 4.1 02:20:46 10° N 02:27:11 83° W 02:33:34 10° S
Cosmos 1607 4.0 02:26:12 11° SSW 02:32:11 88° WNW 02:38:26 10° NNE
Cosmos 2369 Rocket 2.3 02:27:17 10° SSW 02:32:59 81° ESE 02:38:43 10° NNE
Cosmos 1655 Rocket 4.2 02:27:02 10° S 02:33:19 78° E 02:39:42 10° N
Cosmos 2084 3.6 02:31:51 10° NNW 02:35:46 68° NE 02:39:38 10° SE
ADEOS II 2.9 02:31:06 10° N 02:35:51 36° WNW 02:40:35 10° SW
Cosmos 2297 3.7 02:31:27 10° SSW 02:37:04 88° WNW 02:42:44 10° NNE
Cosmos 2315 Rocket 4.1 02:33:58 10° N 02:40:17 89° W 02:46:38 10° S
Meteor 1-28 Rocket 3.0 02:43:05 10° S 02:46:27 59° W 02:49:50 10° NNW
Cosmos 990 Rocket 4.0 02:42:48 10° SSW 02:47:54 77° WNW 02:53:03 10° NNE
Cosmos 2266 Rocket 4.4 02:42:07 10° SSW 02:47:58 47° WNW 02:53:59 10° N
USA 281 3.4 02:45:30 10° NNE 02:52:01 66° WNW 02:58:29 10° SW
ATLAS 3B R/B 4.5 02:52:17 10° W 02:55:02 12° W 02:57:44 10° WSW
Cosmos 1862 3.4 02:52:00 10° S 02:55:41 73° E 02:59:24 10° NNE
Cosmos 1726 Rocket 3.9 02:52:04 10° N 02:56:11 68° E 03:00:24 10° SSE
